Вернуться в каталог

STARLINK-36595

АктивенСвязьVLEO
NORAD 67639·PAYLOAD·🇺🇸 United States

Запущен Jan 30, 2026 с Cape Canaveral Space Force Station

Loading…

Ближайшие Пролёты (ближайшие 24 часа)

TLE

СвежийSource: CelesTrak SupGP

Эпоха: Sep 14, 2026, 23:21 UTC

1 67639C 26020Y   26257.97340278 -.00132100  00000+0 -47886-2 0  2573
2 67639  42.9996 150.8262 0001267 276.2976  14.8731 15.27617668    15

Отслеживайте STARLINK-36595 в реальном времени с AllMySat

Download on the App Store